This is the latest recevied weather packets stored in our database for station/object KC7UNY-13. If no packets are shown the sender has not sent any weather packets the latest 10 day(s).
| Time | Temp. | Humidity | Pressure | Rain* | Wind** | Luminosity | Snow |
|---|---|---|---|---|---|---|---|
| 1777762291 | 35° C | 16% | 1010.1 hPa | 0 mm | - | 325 W/m² | - |
| 1777761986 | 35° C | 16% | 1010.3 hPa | 0 mm | - | 398 W/m² | - |
| 1777761683 | 34.44° C | 17% | 1010.3 hPa | 0 mm | - | 490 W/m² | - |
| 1777761381 | 34.44° C | 17% | 1010.7 hPa | 0 mm | - | 494 W/m² | - |
| 1777761079 | 34.44° C | 16% | 1010.4 hPa | 0 mm | - | 498 W/m² | - |
| 1777760776 | 34.44° C | 16% | 1010.6 hPa | 0 mm | - | 529 W/m² | - |
| 1777760472 | 33.89° C | 17% | 1010.8 hPa | 0 mm | - | 519 W/m² | - |
| 1777760168 | 34.44° C | 17% | 1010.7 hPa | 0 mm | - | 540 W/m² | - |
| 1777759866 | 35° C | 16% | 1010.7 hPa | 0 mm | - | 563 W/m² | - |
| 1777759561 | 33.89° C | 18% | 1010.8 hPa | 0 mm | - | 551 W/m² | - |
| 1777759258 | 33.89° C | 18% | 1010.9 hPa | 0 mm | - | 577 W/m² | - |
| 1777758955 | 33.89° C | 17% | 1011.1 hPa | 0 mm | - | 575 W/m² | - |
| 1777758652 | 35° C | 17% | 1011.3 hPa | 0 mm | - | 607 W/m² | - |
| 1777758349 | 34.44° C | 18% | 1011.2 hPa | 0 mm | - | 631 W/m² | - |
| 1777758047 | 33.89° C | 16% | 1011.1 hPa | 0 mm | - | 659 W/m² | - |
| 1777757743 | 34.44° C | 16% | 1011.3 hPa | 0 mm | - | 666 W/m² | - |
| 1777757441 | 34.44° C | 17% | 1011.4 hPa | 0 mm | - | 678 W/m² | - |
| 1777757140 | 33.89° C | 18% | 1011.5 hPa | 0 mm | - | 663 W/m² | - |
| 1777756837 | 33.89° C | 19% | 1011.5 hPa | 0 mm | - | 686 W/m² | - |
| 1777756532 | 35° C | 18% | 1011.5 hPa | 0 mm | - | 674 W/m² | - |
| 1777756230 | 35° C | 19% | 1011.6 hPa | 0 mm | - | 749 W/m² | - |
| 1777755927 | 35° C | 18% | 1011.7 hPa | 0 mm | - | 748 W/m² | - |
| 1777755624 | 34.44° C | 19% | 1011.8 hPa | 0 mm | - | 756 W/m² | - |
| 1777755320 | 33.89° C | 18% | 1011.8 hPa | 0 mm | - | 780 W/m² | - |
| 1777755017 | 33.89° C | 17% | 1012 hPa | 0 mm | - | 765 W/m² | - |
* Rain latest hour (hover to see other rain measurements)
** Current wind speed in m/s (hover to see current wind gust speed)